Location: Arbon
(43.0005°N, 0.7472°E)
Time: 01:33:59
(UTC+00:00)

S-56A Canister/Altair - Pass Details

Date: 04 December 2020
Orbit: 633 x 2499 km, 38.9° (Epoch: 19 January)

Event Time Altitude Azimuth Distance (km) Brightness Sun altitude
Rises 18:30:13 0° 247° (WSW) 6,038 13.5 -22.6°
Reaches altitude 10° 18:34:28 10° 245° (WSW) 4,882 12.6 -23.4°
Maximum altitude 18:47:34 65° 169° (SSE) 1,943 9.4 -25.8°
Enters shadow 18:51:19 42° 106° (ESE) 2,172 9.3 -26.4°
